Weather History for Indianapolis, IN

Change the Weather History Date:

Friday, August 16, 2013

  Actual Average (KEYE) Record (KEYE)
Temperature  
Mean Temperature 64 °F 74 °F  
Max Temperature 75 °F 83 °F 89 °F (2007)
Min Temperature 53 °F 65 °F 54 °F (2004)
Degree Days  
Heating Degree Days 2 0  
Month to date heating degree days 0  
Since 1 June heating degree days 15  
Since 1 July heating degree days 1  
Cooling Degree Days 0 9  
Month to date cooling degree days 156  
Year to date cooling degree days 792  
Since 1 June cooling degree days 708  
Growing Degree Days 14 (Base 50)    
Moisture  
Dew Point 52 °F    
Average Humidity 69    
Maximum Humidity 89    
Minimum Humidity 42    
Precipitation  
Precipitation 0.00 in 0.10 in 1.05 in (2012)
Month to date precipitation 1.51  
Year to date precipitation 26.97  
Sea Level Pressure  
Sea Level Pressure 30.17 in    
Wind  
Wind Speed 1 mph (ENE)    
Max Wind Speed 9 mph    
Max Gust Speed -    
Visibility 10 miles    
Events      
T = Trace of Precipitation, MM = Missing Value Source: NWS Daily Summary

Daily Weather History Graph

Daily Weather History Graph

Search for Another Location

Airport:

Trip Planner

Search our weather history database for the weather conditions in past years. The results will help you decide how hot, cold, wet, or windy it might be!

Date:

Astronomy

Aug. 16, 2013 Rise Set
Actual Time 6:57 AM EDT 8:39 PM EDT
Civil Twilight 6:28 AM EDT 9:08 PM EDT
Nautical Twilight 5:53 AM EDT 9:43 PM EDT
Astronomical Twilight 5:16 AM EDT 10:20 PM EDT
Moon 4:58 PM EDT (8/16) 1:59 AM EDT (8/16)
Length of Visible Light 14h 39m
Length of Day
13h 42m
Waxing Gibbous, 74% of the Moon is Illuminated
Aug 16
Waxing Gibbous
Aug 20
Full
Aug 28
Last Quarter
Sep 5
New
Sep 12
First Quarter

Hourly Weather History & Observations

Time (EDT) Temp. Dew Point Humidity Pressure Visibility Wind Dir Wind Speed Gust Speed Precip Events Conditions
12:15 AM 55.2 °F 51.6 °F 88% 30.16 in 10.0 mi Calm Calm - N/A   Clear
12:35 AM 54.5 °F 50.9 °F 88% 30.16 in 10.0 mi Calm Calm - N/A   Clear
12:55 AM 53.6 °F 50.0 °F 88% 30.15 in 10.0 mi Calm Calm - N/A   Clear
1:15 AM 54.1 °F 50.5 °F 88% 30.15 in 10.0 mi Calm Calm - N/A   Clear
1:55 AM 53.2 °F 50.0 °F 89% 30.15 in 10.0 mi Calm Calm - N/A   Clear
2:15 AM 53.8 °F 50.4 °F 88% 30.15 in 10.0 mi Calm Calm - N/A   Clear
2:35 AM 54.5 °F 51.1 °F 88% 30.16 in 10.0 mi Calm Calm - N/A   Clear
2:55 AM 54.3 °F 50.9 °F 88% 30.15 in 10.0 mi Calm Calm - N/A   Clear
3:15 AM 54.1 °F 50.9 °F 89% 30.16 in 10.0 mi Calm Calm - N/A   Clear
3:35 AM 54.5 °F 51.3 °F 89% 30.15 in 10.0 mi Calm Calm - N/A   Clear
3:55 AM 55.2 °F 51.8 °F 88% 30.14 in 10.0 mi Calm Calm - N/A   Clear
4:15 AM 55.6 °F 52.0 °F 88% 30.14 in 10.0 mi Calm Calm - N/A   Clear
4:35 AM 55.8 °F 52.3 °F 88% 30.14 in 10.0 mi Calm Calm - N/A   Scattered Clouds
4:55 AM 56.5 °F 52.7 °F 87% 30.14 in 10.0 mi Calm Calm - N/A   Scattered Clouds
5:15 AM 56.3 °F 52.7 °F 88% 30.14 in 10.0 mi Calm Calm - N/A   Clear
5:35 AM 55.9 °F 52.3 °F 88% 30.15 in 10.0 mi Calm Calm - N/A   Clear
5:55 AM 56.3 °F 52.3 °F 87% 30.15 in 10.0 mi Calm Calm - N/A   Clear
6:15 AM 56.1 °F 52.3 °F 87% 30.15 in 10.0 mi Calm Calm - N/A   Clear
6:35 AM 55.2 °F 51.4 °F 87% 30.15 in 10.0 mi Calm Calm - N/A   Clear
6:55 AM 55.4 °F 51.4 °F 87% 30.15 in 10.0 mi Calm Calm - N/A   Clear
7:15 AM 55.9 °F 51.8 °F 86% 30.16 in 10.0 mi Calm Calm - N/A   Clear
7:35 AM 55.9 °F 52.2 °F 87% 30.16 in 10.0 mi Calm Calm - N/A   Clear
7:55 AM 56.3 °F 52.7 °F 88% 30.16 in 10.0 mi Calm Calm - N/A   Mostly Cloudy
8:15 AM 57.4 °F 53.2 °F 86% 30.18 in 10.0 mi Calm Calm - N/A   Scattered Clouds
8:35 AM 58.1 °F 53.8 °F 86% 30.19 in 10.0 mi Calm Calm - N/A   Clear
8:55 AM 59.4 °F 54.3 °F 83% 30.19 in 10.0 mi Calm Calm - N/A   Clear
9:15 AM 61.0 °F 54.1 °F 78% 30.19 in 10.0 mi Calm Calm - N/A   Clear
9:35 AM 61.9 °F 53.8 °F 75% 30.19 in 10.0 mi Calm Calm - N/A   Clear
9:55 AM 62.8 °F 54.0 °F 73% 30.19 in 10.0 mi Calm Calm - N/A   Clear
10:15 AM 65.5 °F 54.3 °F 67% 30.19 in 10.0 mi Calm Calm - N/A   Clear
10:35 AM 68.2 °F 52.9 °F 58% 30.18 in 10.0 mi East 5.8 mph - N/A   Clear
10:55 AM 69.8 °F 51.6 °F 52% 30.19 in 10.0 mi East 3.5 mph - N/A   Clear
11:15 AM 70.2 °F 50.9 °F 50% 30.19 in 10.0 mi East 3.5 mph - N/A   Clear
11:35 AM 71.2 °F 51.3 °F 49% 30.19 in 10.0 mi East 3.5 mph - N/A   Clear
11:55 AM 70.7 °F 49.8 °F 48% 30.19 in 10.0 mi East 4.6 mph - N/A   Scattered Clouds
12:15 PM 71.4 °F 49.6 °F 46% 30.19 in 10.0 mi East 5.8 mph - N/A   Scattered Clouds
12:35 PM 71.1 °F 50.0 °F 47% 30.19 in 10.0 mi East 6.9 mph - N/A   Clear
12:55 PM 72.7 °F 51.4 °F 47% 30.19 in 10.0 mi East 6.9 mph - N/A   Clear
1:15 PM 72.1 °F 50.4 °F 46% 30.19 in 10.0 mi ESE 5.8 mph - N/A   Scattered Clouds
1:35 PM 72.0 °F 50.5 °F 47% 30.19 in 10.0 mi East 4.6 mph - N/A   Scattered Clouds
1:55 PM 72.5 °F 50.9 °F 47% 30.18 in 10.0 mi East 5.8 mph - N/A   Mostly Cloudy
2:15 PM 72.5 °F 51.1 °F 47% 30.18 in 10.0 mi ENE 3.5 mph - N/A   Mostly Cloudy
2:35 PM 72.0 °F 52.0 °F 49% 30.18 in 10.0 mi East 4.6 mph - N/A   Mostly Cloudy
2:55 PM 72.9 °F 51.4 °F 47% 30.18 in 10.0 mi SE 5.8 mph - N/A   Overcast
3:15 PM 72.3 °F 50.9 °F 47% 30.18 in 10.0 mi Calm Calm - N/A   Mostly Cloudy
3:35 PM 73.2 °F 52.2 °F 48% 30.17 in 10.0 mi NE 4.6 mph - N/A   Mostly Cloudy
3:55 PM 74.1 °F 52.0 °F 46% 30.17 in 10.0 mi East 4.6 mph - N/A   Scattered Clouds
4:15 PM 74.3 °F 51.4 °F 45% 30.16 in 10.0 mi NE 5.8 mph - N/A   Scattered Clouds
4:35 PM 73.2 °F 51.4 °F 46% 30.16 in 10.0 mi NNE 9.2 mph - N/A   Scattered Clouds
4:55 PM 74.1 °F 51.8 °F 46% 30.16 in 10.0 mi NE 8.1 mph - N/A   Clear
5:15 PM 73.9 °F 51.3 °F 45% 30.16 in 10.0 mi ENE 4.6 mph - N/A   Clear
5:35 PM 73.8 °F 51.4 °F 45% 30.17 in 10.0 mi ENE 6.9 mph - N/A   Clear
5:55 PM 73.8 °F 49.5 °F 42% 30.16 in 10.0 mi ENE 4.6 mph - N/A   Clear
6:15 PM 72.0 °F 49.3 °F 45% 30.16 in 10.0 mi NE 6.9 mph - N/A   Clear
6:35 PM 71.2 °F 50.5 °F 48% 30.17 in 10.0 mi NE 4.6 mph - N/A   Clear
6:55 PM 71.6 °F 51.8 °F 50% 30.17 in 10.0 mi ENE 4.6 mph - N/A   Clear
7:15 PM 71.6 °F 51.1 °F 48% 30.17 in 10.0 mi ENE 4.6 mph - N/A   Clear
7:35 PM 70.0 °F 52.5 °F 54% 30.17 in 10.0 mi NE 4.6 mph - N/A   Clear
7:55 PM 68.5 °F 54.5 °F 61% 30.17 in 10.0 mi NE 3.5 mph - N/A   Clear
8:15 PM 66.7 °F 55.0 °F 66% 30.17 in 10.0 mi NE 3.5 mph - N/A   Clear
8:35 PM 64.6 °F 55.9 °F 74% 30.17 in 10.0 mi NE 3.5 mph - N/A   Clear
8:55 PM 63.1 °F 55.9 °F 77% 30.17 in 10.0 mi NE 3.5 mph - N/A   Clear
9:15 PM 62.8 °F 55.9 °F 78% 30.18 in 10.0 mi Calm Calm - N/A   Clear
9:35 PM 62.2 °F 55.8 °F 79% 30.19 in 10.0 mi Calm Calm - N/A   Clear
9:55 PM 61.7 °F 55.9 °F 81% 30.19 in 10.0 mi Calm Calm - N/A   Clear
10:15 PM 61.3 °F 55.9 °F 82% 30.19 in 10.0 mi Calm Calm - N/A   Clear
10:35 PM 61.3 °F 55.4 °F 81% 30.19 in 10.0 mi Calm Calm - N/A   Clear
10:55 PM 60.3 °F 55.6 °F 85% 30.19 in 10.0 mi Calm Calm - N/A   Clear
11:15 PM 59.9 °F 54.9 °F 83% 30.19 in 10.0 mi Calm Calm - N/A   Clear
11:35 PM 59.2 °F 54.5 °F 84% 30.19 in 10.0 mi Calm Calm - N/A   Clear
11:55 PM 58.1 °F 54.3 °F 87% 30.20 in 10.0 mi Calm Calm - N/A   Clear